When you browse on this site, cookies collect data to enhance your experience and personalize the content and advertising you see.
Visit our Privacy Policy to learn more. By continuing to use the site, you agree to this use of cookies and data.
  • In Hungary
  • List of Countries
  • For 7 days
  • Water Temperature
  • Satellite Maps
  • Weather Map
  • News
  • Weather Widgets
  • user-avatar
    Login

    Hourly Weather Grachevo

    Today, 21 November, Wednesday

    Time Temperature Precipitation Wind Pressure Humidity
    00:00 -5°C° 0 mm 2 mps 754 mmHg 87%
    01:00 -5°C° 0 mm 2 mps 754 mmHg 86%
    02:00 -5°C° 0 mm 2 mps 754 mmHg 85%
    03:00 -5°C° 0 mm 2 mps 754 mmHg 84%
    04:00 -5°C° 0 mm 2 mps 754 mmHg 83%
    05:00 -5°C° 0 mm 2 mps 753 mmHg 82%
    06:00 -5°C° 0 mm 2 mps 753 mmHg 82%
    07:00 -5°C° 0 mm 2 mps 753 mmHg 82%
    08:00 -5°C° 0 mm 2 mps 753 mmHg 82%
    09:00 -5°C° 0 mm 3 mps 753 mmHg 81%
    10:00 -5°C° 0 mm 3 mps 753 mmHg 79%
    11:00 -4°C° 0 mm 3 mps 754 mmHg 78%
    12:00 -4°C° 0 mm 3 mps 753 mmHg 78%
    13:00 -4°C° 0 mm 3 mps 753 mmHg 77%
    14:00 -4°C° 0 mm 3 mps 753 mmHg 77%
    15:00 -3°C° 0 mm 2 mps 753 mmHg 78%
    16:00 -3°C° 0 mm 2 mps 753 mmHg 79%
    17:00 -3°C° 0 mm 2 mps 753 mmHg 80%
    18:00 -3°C° 0 mm 2 mps 753 mmHg 80%
    19:00 -3°C° 0 mm 2 mps 753 mmHg 81%
    20:00 -3°C° 0 mm 2 mps 753 mmHg 82%
    21:00 -3°C° 0 mm 2 mps 753 mmHg 83%
    22:00 -4°C° 0 mm 2 mps 753 mmHg 85%
    23:00 -4°C° 0 mm 2 mps 753 mmHg 86%

    Tomorrow, 22 November, Thursday

    Time Temperature Precipitation Wind Pressure Humidity
    00:00 -4°C° 0 mm 2 mps 753 mmHg 86%
    01:00 -4°C° 0 mm 2 mps 753 mmHg 86%
    02:00 -5°C° 0 mm 3 mps 753 mmHg 86%
    03:00 -5°C° 0 mm 3 mps 752 mmHg 85%
    04:00 -5°C° 0 mm 3 mps 752 mmHg 84%
    05:00 -5°C° 0 mm 3 mps 752 mmHg 84%
    06:00 -5°C° 0 mm 3 mps 751 mmHg 85%
    07:00 -5°C° 0 mm 3 mps 751 mmHg 87%
    08:00 -5°C° 0 mm 3 mps 751 mmHg 89%
    09:00 -5°C° 0 mm 4 mps 751 mmHg 87%
    10:00 -4°C° 0 mm 4 mps 751 mmHg 85%
    11:00 -4°C° 0 mm 4 mps 750 mmHg 84%
    12:00 -5°C° 0 mm 5 mps 750 mmHg 83%
    13:00 -4°C° 0 mm 5 mps 750 mmHg 82%
    14:00 -4°C° 0 mm 5 mps 750 mmHg 81%
    15:00 -5°C° 0 mm 5 mps 750 mmHg 82%
    16:00 -5°C° 0 mm 5 mps 749 mmHg 84%
    17:00 -5°C° 0 mm 5 mps 749 mmHg 86%
    18:00 -5°C° 0 mm 5 mps 749 mmHg 85%
    19:00 -5°C° 0 mm 5 mps 749 mmHg 83%
    20:00 -5°C° 0 mm 5 mps 749 mmHg 82%
    21:00 -4°C° 0 mm 4 mps 750 mmHg 83%
    22:00 -3°C° 0 mm 4 mps 750 mmHg 84%
    23:00 -3°C° 0 mm 4 mps 750 mmHg 84%

    Day after tomorrow, 23 November, Friday

    Time Temperature Precipitation Wind Pressure Humidity
    00:00 -3°C° 0 mm 4 mps 750 mmHg 86%
    01:00 -3°C° 0 mm 4 mps 750 mmHg 87%
    02:00 -3°C° 0 mm 4 mps 750 mmHg 89%
    03:00 -2°C° 0 mm 3 mps 751 mmHg 90%
    04:00 -2°C° 0 mm 3 mps 751 mmHg 92%
    05:00 -4°C° 0 mm 3 mps 751 mmHg 93%
    06:00 -4°C° 0 mm 3 mps 752 mmHg 93%
    07:00 -3°C° 0 mm 2 mps 752 mmHg 93%
    08:00 -3°C° 0 mm 2 mps 753 mmHg 93%
    09:00 -2°C° 0 mm 2 mps 753 mmHg 90%
    10:00 -2°C° 0 mm 2 mps 753 mmHg 87%
    11:00 +1°C° 0 mm 1 mps 754 mmHg 84%
    12:00 +1°C° 0 mm 1 mps 754 mmHg 85%
    13:00 +1°C° 0 mm 1 mps 754 mmHg 85%
    14:00 +1°C° 0 mm 1 mps 754 mmHg 85%
    15:00 0°C° 0 mm 1 mps 754 mmHg 88%
    16:00 -2°C° 0 mm 2 mps 754 mmHg 91%
    17:00 -3°C° 0 mm 2 mps 754 mmHg 94%
    18:00 -3°C° 0 mm 2 mps 754 mmHg 93%
    19:00 -3°C° 0 mm 2 mps 754 mmHg 93%
    20:00 -3°C° 0 mm 2 mps 753 mmHg 93%
    21:00 -3°C° 0 mm 2 mps 753 mmHg 91%
    22:00 -4°C° 0 mm 3 mps 753 mmHg 89%
    23:00 -2°C° 0 mm 3 mps 753 mmHg 87%

    24 November, Saturday

    Time Temperature Precipitation Wind Pressure Humidity
    00:00 -2°C° 0 mm 3 mps 753 mmHg 87%
    01:00 -3°C° 0 mm 4 mps 752 mmHg 87%
    02:00 -3°C° 0 mm 4 mps 752 mmHg 87%
    03:00 -4°C° 0 mm 4 mps 752 mmHg 87%
    04:00 -5°C° 0 mm 5 mps 751 mmHg 88%
    05:00 -6°C° 0 mm 5 mps 751 mmHg 88%
    06:00 -6°C° 0 mm 5 mps 750 mmHg 88%
    07:00 -6°C° 0 mm 5 mps 750 mmHg 88%
    08:00 -7°C° 0 mm 4 mps 749 mmHg 88%
    09:00 -7°C° 0 mm 4 mps 749 mmHg 85%
    10:00 -6°C° 0 mm 5 mps 749 mmHg 83%
    11:00 -6°C° 0 mm 5 mps 748 mmHg 80%
    12:00 -6°C° 0 mm 5 mps 748 mmHg 79%
    13:00 -4°C° 0 mm 4 mps 747 mmHg 77%
    14:00 -4°C° 0 mm 4 mps 747 mmHg 76%
    15:00 -5°C° 0 mm 5 mps 746 mmHg 78%
    16:00 -5°C° 0 mm 5 mps 746 mmHg 80%
    17:00 -5°C° 0 mm 5 mps 746 mmHg 82%
    18:00 -5°C° 0 mm 5 mps 745 mmHg 83%
    19:00 -5°C° 0 mm 5 mps 745 mmHg 84%
    20:00 -5°C° 0 mm 5 mps 745 mmHg 86%
    21:00 -4°C° 0.1 mm 4 mps 745 mmHg 87%
    22:00 -3°C° 0.1 mm 4 mps 745 mmHg 88%
    23:00 -3°C° 0.1 mm 4 mps 745 mmHg 90%

    25 November, Sunday

    Time Temperature Precipitation Wind Pressure Humidity
    00:00 -3°C° 0.1 mm 4 mps 744 mmHg 91%
    01:00 -2°C° 0.1 mm 3 mps 744 mmHg 92%
    02:00 -2°C° 0.1 mm 3 mps 744 mmHg 93%
    03:00 -2°C° 0.1 mm 3 mps 744 mmHg 94%
    04:00 -2°C° 0.1 mm 2 mps 744 mmHg 94%
    05:00 -2°C° 0.1 mm 2 mps 744 mmHg 95%
    06:00 -2°C° 0.1 mm 2 mps 744 mmHg 96%
    07:00 0°C° 0.1 mm 1 mps 744 mmHg 96%
    08:00 0°C° 0.1 mm 1 mps 744 mmHg 96%
    09:00 +1°C° 0 mm 1 mps 744 mmHg 95%
    10:00 +1°C° 0 mm 1 mps 744 mmHg 94%
    11:00 0°C° 0 mm 0 mps 744 mmHg 93%
    12:00 0°C° 0 mm 0 mps 744 mmHg 93%
    13:00 0°C° 0 mm 0 mps 744 mmHg 93%
    14:00 +1°C° 0 mm 1 mps 744 mmHg 93%
    15:00 +1°C° 0 mm 1 mps 744 mmHg 94%
    16:00 +1°C° 0 mm 1 mps 743 mmHg 95%
    17:00 +1°C° 0 mm 1 mps 743 mmHg 95%
    18:00 +1°C° 0.2 mm 1 mps 743 mmHg 96%
    19:00 +1°C° 0.2 mm 1 mps 743 mmHg 96%
    20:00 0°C° 0.2 mm 1 mps 742 mmHg 96%
    21:00 0°C° 0.2 mm 1 mps 742 mmHg 96%
    22:00 0°C° 0.2 mm 1 mps 742 mmHg 96%
    23:00 0°C° 0.2 mm 1 mps 741 mmHg 96%

    26 November, Monday

    Time Temperature Precipitation Wind Pressure Humidity
    00:00 0°C° 0.3 mm 1 mps 741 mmHg 96%
    01:00 0°C° 0.3 mm 1 mps 741 mmHg 96%
    02:00 0°C° 0.3 mm 1 mps 740 mmHg 97%
    03:00 -2°C° 0.3 mm 2 mps 740 mmHg 96%
    04:00 -2°C° 0.3 mm 2 mps 740 mmHg 96%
    05:00 -2°C° 0.3 mm 3 mps 740 mmHg 96%
    06:00 -2°C° 0.2 mm 3 mps 740 mmHg 94%
    07:00 -3°C° 0.2 mm 4 mps 740 mmHg 93%
    08:00 -5°C° 0.2 mm 5 mps 740 mmHg 91%
    09:00 -5°C° 0 mm 5 mps 741 mmHg 90%
    10:00 -5°C° 0 mm 5 mps 741 mmHg 88%
    11:00 -5°C° 0 mm 5 mps 741 mmHg 87%
    12:00 -5°C° 0 mm 4 mps 742 mmHg 86%
    13:00 -5°C° 0 mm 4 mps 742 mmHg 86%
    14:00 -5°C° 0 mm 4 mps 742 mmHg 85%
    15:00 -5°C° 0 mm 3 mps 742 mmHg 87%
    16:00 -6°C° 0 mm 3 mps 743 mmHg 89%
    17:00 -6°C° 0 mm 2 mps 743 mmHg 91%
    18:00 -6°C° 0 mm 2 mps 743 mmHg 91%
    19:00 -7°C° 0 mm 2 mps 743 mmHg 92%
    20:00 -7°C° 0 mm 2 mps 744 mmHg 93%
    21:00 -6°C° 0 mm 1 mps 744 mmHg 93%
    22:00 -6°C° 0 mm 1 mps 744 mmHg 93%
    23:00 -6°C° 0 mm 1 mps 744 mmHg 92%
    Show more